Rustenburg Airport

Jump to: basic info | weather | frequencies | runways | comments

Related pages: nearby airports | nearby navaids | notams | map

Basic information (top)

Codes: FARG
Location: lon -25.644300, lat 27.271099, elev 3,700 ft / 1,128 m msl
Status: medium_airport
Scheduled airline service: no
Links: Wikipedia Mobile

Weather (top)

Current conditions (rec'd 2013/07/12 07:00Z):

FARG 120700Z AUTO 11002KT //// // ////// 14/04 Q////

Airport forecast for Pilanesberg International Airport 19nm (36km) NNW (rec'd 2015/02/28 07:39Z):

TAF FAPN 280600Z 2807/2818 03006KT CAVOK 
     FM280900 30008KT 9999 SCT040 PROB40 
      TEMPO 2811/2818 5000 TSRA FEW035CB TX29/2813ZTN20/2818Z

Frequencies (top)

Verify before use: may be inaccurate or out of date.

A/G: 122.4 MHz (A/G VOICE RDO)

Runways (top)

16/34: 4,019 x 50 ft (1,225 x 15 m) — paved — lighted

Latest comments (top)

Aerodrome Info: Rustenburg (FARG), is an Unmanned ... [read]

skydive Rustenburg: sounds so great, i cant wait to do it! ... [read]

re: SkyDive Rustenburg and SkyDiversity at Rustenburg Airfie: everyone should jump out of an ... [read]

SkyDive Rustenburg and SkyDiversity at Rustenburg Airfield: SkyDive Rustenburg / SkyDiversity ... [read]

More... (top)

See also NOTAMs and nearby airports and navaids, or visit the Rustenburg Airport page at the main OurAirports website..